DateTimeUTC,F1_A11,F1_S11,BsB_S11,BsG_S11,BsR_S11,BbsB_S11,BbsG_S11,BbsR_S11,BaB_A11,BaG_A11,BaR_A11,Tu_S11,T_S11,Uu_S11,U_S11,P_S11,T1_A11
2021-02-17T05:00:00Z,00000200,21000000,,,,,,,-000.05,0000.25,0000.14,16.5,23.3,,00.0,0634.6,31.0
2021-02-17T05:01:00Z,00000200,21000000,,,,,,,0000.10,-000.31,0000.03,16.5,23.3,,00.0,0634.6,31.0
2021-02-17T05:02:00Z,00000200,21000000,,,,,,,0000.05,0000.07,0000.20,16.5,23.3,,00.0,0634.6,31.0
2021-02-17T05:03:00Z,00000200,61000000,,,,,,,-000.22,-000.03,-000.50,16.5,23.3,,00.0,0634.7,31.0
2021-02-17T05:04:00Z,00000200,41000000,-000.21,-000.07,-000.23,0000.34,-000.02,-000.31,0000.03,-000.14,0000.23,16.6,23.1,,00.0,0635.6,31.0
2021-02-17T05:05:00Z,00000200,01000000,0000.26,0000.07,-000.21,-000.18,0000.15,0000.36,-000.08,-000.17,-000.34,16.7,23.0,,00.0,0635.7,31.0
2021-02-17T05:06:00Z,00000200,01000000,0000.62,0000.21,0000.05,0000.12,-000.01,-000.18,0000.07,0000.10,0000.07,16.7,23.1,,00.0,0635.7,31.0
2021-02-17T05:07:00Z,00000200,01000000,0000.70,-000.20,0000.03,0000.18,-000.16,0000.06,-000.30,-000.33,-000.01,16.8,23.1,,00.0,0635.7,31.0
2021-02-17T05:08:00Z,00000200,01000000,-000.40,0000.20,0000.04,0000.17,0000.12,0000.02,0000.01,0000.45,-000.18,16.8,23.1,,00.0,0635.8,31.0
2021-02-17T05:09:00Z,00000200,01000000,-000.47,-000.01,-000.01,0000.34,-000.03,0000.12,-000.01,-000.47,0000.02,16.9,23.1,,00.0,0635.7,31.0
2021-02-17T05:10:00Z,00000200,01000000,0000.20,-000.37,-000.12,0000.25,0000.03,-000.10,-000.01,0000.01,-000.15,16.8,23.1,,00.0,0635.8,31.0
2021-02-17T05:11:00Z,00000200,01000000,0000.47,0000.23,-000.14,0000.29,-000.05,0000.22,-000.44,0000.06,0000.10,16.8,23.1,,00.0,0635.8,31.0
2021-02-17T05:12:00Z,00000200,01000000,-000.25,-000.12,-000.39,0000.24,-000.01,-000.40,0000.12,0000.10,-000.19,16.8,23.1,,00.0,0635.8,31.0
2021-02-17T05:13:00Z,00000200,01000000,-000.06,0000.26,0000.04,0000.26,0000.06,-000.04,0000.01,-000.37,0000.34,16.8,23.1,,00.0,0635.8,31.0
2021-02-17T05:14:00Z,00000200,01000000,-000.01,0000.09,-000.05,-000.12,-000.03,0000.19,-000.25,0000.23,-000.39,16.7,23.1,,00.0,0635.8,31.0
2021-02-17T05:15:00Z,00000200,01000000,0000.02,0000.13,-000.10,0000.42,-000.04,0000.27,0000.05,-000.16,0000.14,16.7,23.1,,00.0,0635.9,31.0
2021-02-17T05:16:00Z,00000200,01000000,-000.51,0000.14,0000.08,-000.35,0000.14,-000.29,-000.05,-000.04,-000.11,16.7,23.1,,00.0,0635.9,31.0
2021-02-17T05:17:00Z,00000200,01000000,-000.21,-000.02,-000.04,-000.46,0000.06,0000.41,-000.14,-000.28,-000.05,16.7,23.1,,00.0,0635.9,31.0
2021-02-17T05:18:00Z,00000200,01000000,0000.43,-000.09,-000.30,0000.02,0000.23,-000.08,-000.08,0000.04,0000.04,16.7,23.0,,00.0,0635.9,31.0
2021-02-17T05:19:00Z,00000200,01000000,-000.27,0000.16,0000.02,0000.14,0000.19,-000.02,0000.12,-000.12,-000.03,16.7,23.0,,00.0,0635.9,31.0
2021-02-17T05:20:00Z,00000200,01000000,-000.23,0000.08,0000.09,0000.01,-000.01,0000.11,0000.27,0000.62,0000.09,16.7,23.0,,00.0,0635.9,31.0
2021-02-17T05:21:00Z,00000200,01000000,-000.10,-000.11,-000.19,0000.12,0000.05,0000.01,0000.19,-000.22,0000.26,16.8,23.1,,00.0,0635.9,31.0
2021-02-17T05:22:00Z,00000200,01000000,-000.72,0000.01,0000.19,0000.69,0000.09,0000.31,-000.16,0000.25,-000.17,16.8,23.1,,00.0,0635.9,31.0
2021-02-17T05:23:00Z,00000200,01000000,-000.47,-000.06,0000.12,0000.08,0000.05,0000.02,0000.11,-000.13,0000.27,16.8,23.1,,00.0,0635.9,31.0
2021-02-17T05:24:00Z,00000200,01000000,0000.01,0000.11,-000.09,0000.53,-000.16,-000.18,-000.00,-000.50,-000.52,16.8,23.1,,00.0,0635.9,31.0
2021-02-17T05:25:00Z,00000200,01000000,-000.01,0000.12,-000.03,-000.04,-000.10,-000.18,-000.55,0000.38,0000.34,16.8,23.1,,00.0,0636.0,31.0
2021-02-17T05:26:00Z,00000200,01000000,-000.12,0000.31,-000.39,0000.33,-000.07,-000.10,0000.05,-000.61,-000.38,16.8,23.1,,00.0,0636.0,31.0
2021-02-17T05:27:00Z,00000200,01000000,0000.43,-000.18,-000.08,0000.33,-000.07,0000.06,-000.33,-000.03,-000.04,16.8,23.1,,00.0,0636.1,31.0
2021-02-17T05:28:00Z,00000200,01000000,-000.35,-000.01,-000.16,0000.23,0000.03,0000.10,0000.64,0000.25,0000.25,16.8,23.1,,00.0,0636.1,31.0
2021-02-17T05:29:00Z,00000200,01000000,-000.37,-000.27,-000.29,-000.29,0000.03,0000.14,0000.33,0000.67,0000.73,16.8,23.1,,00.0,0636.1,31.0
2021-02-17T05:30:00Z,00000200,01000000,-000.06,0000.10,-000.05,0000.06,0000.04,0000.15,0000.19,0000.12,0000.20,16.7,23.1,,00.0,0636.1,31.0
2021-02-17T05:31:00Z,00000200,01000000,-000.44,0000.00,0000.01,-000.20,0000.32,-000.12,-000.22,-000.16,-000.19,16.7,23.1,,00.0,0636.1,31.0
2021-02-17T05:32:00Z,00000200,01000000,-000.02,-000.09,-000.17,0000.66,-000.08,-000.20,-000.18,0000.01,-000.26,16.7,23.1,,00.0,0636.2,31.0
2021-02-17T05:33:00Z,00000200,01000000,-000.35,0000.20,0000.18,0000.29,-000.20,-000.10,0000.01,-000.24,0000.02,16.7,23.0,,00.0,0636.2,31.0
2021-02-17T05:34:00Z,00000200,01000000,-000.05,-000.30,0000.09,0000.40,0000.01,0000.31,0000.11,0000.28,0000.00,16.7,23.0,,00.0,0636.2,31.0
2021-02-17T05:35:00Z,00000200,01000000,0000.46,0000.02,-000.12,0000.29,0000.03,0000.01,0000.18,-000.10,0000.20,16.7,23.0,,00.0,0636.1,31.0
2021-02-17T05:36:00Z,00000200,01000000,0000.20,0000.25,-000.05,0000.00,-000.04,0000.23,0000.09,0000.20,0000.09,16.8,23.0,,00.0,0636.1,31.0
2021-02-17T05:37:00Z,00000200,01000000,0000.02,0000.21,-000.17,0000.28,-000.08,-000.11,0000.22,-000.12,0000.21,16.9,23.1,,00.0,0636.1,31.0
2021-02-17T05:38:00Z,00000200,01000000,0000.26,0000.22,-000.12,-000.08,-000.05,0000.08,0000.10,0000.28,0000.03,16.9,23.1,,00.0,0636.1,31.0
2021-02-17T05:39:00Z,00000200,01000000,-000.10,0000.27,0000.07,-000.09,0000.14,0000.16,0000.03,0000.28,-000.01,16.9,23.1,,00.0,0636.1,31.0
2021-02-17T05:40:00Z,00000200,01000000,-000.25,0000.31,-000.12,0000.21,-000.15,0000.13,0000.33,-000.07,0000.10,16.9,23.1,,00.0,0636.1,31.0
2021-02-17T05:41:00Z,00000200,01000000,0000.16,0000.06,-000.20,0000.35,-000.18,-000.03,-000.40,0000.23,-000.06,16.9,23.1,,00.0,0636.1,31.0
2021-02-17T05:42:00Z,00000200,01000000,0000.29,0000.00,-000.13,0000.07,0000.14,-000.06,0000.01,-000.15,-000.05,16.8,23.1,,00.0,0636.1,31.0
2021-02-17T05:43:00Z,00000200,01000000,0000.09,0000.18,-000.04,-000.33,0000.12,-000.24,0000.26,-000.04,0000.21,16.8,23.1,,00.0,0636.1,31.0
2021-02-17T05:44:00Z,00000200,01000000,-000.01,-000.00,-000.25,-000.12,-000.11,-000.05,-000.05,0000.05,0000.31,16.8,23.1,,00.0,0636.2,31.0
2021-02-17T05:45:00Z,00000200,01000000,0000.10,0000.02,0000.00,0000.49,-000.09,0000.11,-000.18,0000.02,-000.51,16.8,23.1,,00.0,0636.2,31.0
2021-02-17T05:46:00Z,00000200,01000000,-000.32,0000.08,-000.18,0000.11,-000.14,-000.04,-000.04,-000.12,0000.23,16.8,23.1,,00.0,0636.2,31.0
2021-02-17T05:47:00Z,00000200,01000000,-000.21,0000.03,-000.19,0000.07,0000.01,-000.18,-000.21,0000.10,-000.16,16.8,23.1,,00.0,0636.2,31.0
2021-02-17T05:48:00Z,00000200,01000000,-000.55,0000.18,-000.19,-000.00,0000.25,-000.14,0000.06,-000.20,-000.34,16.7,23.0,,00.0,0636.2,31.0
2021-02-17T05:49:00Z,00000200,01000000,-000.28,0000.02,-000.18,0000.38,0000.29,-000.06,0000.16,-000.24,0000.32,16.7,23.0,,00.0,0636.2,31.0
2021-02-17T05:50:00Z,00000200,01000000,0000.57,-000.18,-000.17,0000.25,-000.06,0000.14,-000.15,0000.07,-000.23,16.7,23.0,,00.0,0636.2,31.0
2021-02-17T05:51:00Z,00000200,01000000,-000.18,0000.15,-000.18,0000.03,-000.12,-000.20,0000.10,0000.06,-000.03,16.8,23.1,,00.0,0636.2,31.0
2021-02-17T05:52:00Z,00000200,01000000,0000.22,-000.04,-000.07,-000.17,0000.16,-000.13,0000.01,-000.03,0000.48,16.8,23.1,,00.0,0636.2,31.0
2021-02-17T05:53:00Z,00000200,01000000,-000.06,-000.07,-000.04,0000.22,-000.10,-000.04,0000.19,0000.41,0000.01,16.8,23.1,,00.0,0636.2,31.0
2021-02-17T05:54:00Z,00000200,01000000,0000.09,0000.28,0000.06,0000.23,-000.09,0000.16,0000.07,-000.15,-000.21,16.8,23.1,,00.0,0636.2,31.0
2021-02-17T05:55:00Z,00000200,01000000,-000.20,0000.20,-000.02,-000.05,-000.15,0000.36,-000.23,0000.12,0000.00,16.8,23.1,,00.0,0636.3,31.0
2021-02-17T05:56:00Z,00000200,01000000,0000.25,0000.14,0000.18,-000.02,-000.16,0000.12,0000.08,-000.12,-000.07,16.8,23.1,,00.0,0636.3,31.0
2021-02-17T05:57:00Z,00000200,41000000,,,,,,,0000.92,0000.98,0000.88,16.8,23.1,,00.0,0636.3,31.0
2021-02-17T05:58:00Z,00000200,61000000,,,,,,,-000.56,-000.64,-000.36,16.5,23.2,,00.0,0635.4,31.0
2021-02-17T05:59:00Z,00000200,21000000,,,,,,,-000.27,-000.31,-000.37,16.4,23.3,,00.0,0635.4,31.0
